Pierceville, KS

4:38 PM CST on December 06, 2016 (GMT -0600)
Garden City Regional

Weather History for KGCK - July, 2013

Change the Weather History Date:

Sunday, July 7, 2013

  Actual Average Record
Temperature  
Mean Temperature 86 °F 78 °F  
Max Temperature 100 °F 92 °F 106 °F (1973)
Min Temperature 72 °F 64 °F 54 °F (1952)
Degree Days  
Heating Degree Days 0 0  
Month to date heating degree days 0 0  
Since 1 June heating degree days 12 16  
Since 1 July heating degree days 0 0  
Cooling Degree Days 21 13  
Month to date cooling degree days 89 88  
Year to date cooling degree days 627 429  
Since 1 June cooling degree days 480 340  
Growing Degree Days 34 (Base 50)    
Moisture  
Dew Point 51 °F    
Average Humidity 34    
Maximum Humidity 47    
Minimum Humidity 20    
Precipitation  
Precipitation 0.00 in 0.10 in 1.03 in (1988)
Month to date precipitation T 0.68  
Year to date precipitation 3.71 11.10  
Sea Level Pressure  
Sea Level Pressure 29.81 in    
Wind  
Wind Speed 13 mph (South)    
Max Wind Speed 24 mph    
Max Gust Speed 30 mph    
Visibility 10 miles    
Events      
T = Trace of Precipitation, MM = Missing Value Source: NWS Daily Summary

Daily Weather History Graph

Daily Weather History Graph

Search for Another Location

Airport or City:

Trip Planner

Search our weather history database for the weather conditions in past years. The results will help you decide how hot, cold, wet, or windy it might be!

Date:

Astronomy

Jul. 07, 2013 Rise Set
Actual Time 6:27 AM CDT 9:07 PM CDT
Civil Twilight 5:56 AM CDT 9:38 PM CDT
Nautical Twilight 5:17 AM CDT 10:17 PM CDT
Astronomical Twilight 4:34 AM CDT 11:00 PM CDT
Moon 6:04 AM CDT (7/7) 8:34 PM CDT (7/7)
Length of Visible Light 15h 42m
Length of Day
14h 40m
Waning Crescent, 0% of the Moon is Illuminated
Jul 7
Waning Crescent
Jul 8
New
Jul 15
First Quarter
Jul 22
Full
Jul 29
Last Quarter

Hourly Weather History & Observations

Time (CDT) Temp. Heat Index Dew Point Humidity Pressure Visibility Wind Dir Wind Speed Gust Speed Precip Events Conditions
12:54 AM 82.9 °F - 46.0 °F 27% 29.82 in 10.0 mi SE 5.8 mph - N/A   Mostly Cloudy
1:54 AM 81.0 °F - 46.0 °F 29% 29.80 in 10.0 mi SE 13.8 mph - N/A   Partly Cloudy
2:54 AM 79.0 °F - 46.0 °F 31% 29.81 in 10.0 mi East 9.2 mph - N/A   Clear
3:54 AM 77.0 °F - 46.9 °F 34% 29.80 in 10.0 mi SSE 10.4 mph - N/A   Clear
4:54 AM 75.0 °F - 46.9 °F 37% 29.80 in 10.0 mi SSE 6.9 mph - N/A   Clear
5:54 AM 73.9 °F - 48.0 °F 40% 29.80 in 10.0 mi South 9.2 mph - N/A   Clear
6:54 AM 72.0 °F - 50.0 °F 46% 29.81 in 10.0 mi South 10.4 mph - N/A   Clear
7:54 AM 75.0 °F - 50.0 °F 41% 29.81 in 10.0 mi SSW 13.8 mph - N/A   Clear
8:54 AM 79.0 °F - 51.1 °F 38% 29.82 in 10.0 mi SSW 15.0 mph - N/A   Clear
9:54 AM 84.9 °F - 51.1 °F 31% 29.82 in 10.0 mi SSW 19.6 mph - N/A   Clear
10:54 AM 89.1 °F - 51.1 °F 27% 29.82 in 10.0 mi SW 18.4 mph - N/A   Clear
11:54 AM 91.0 °F - 52.0 °F 26% 29.82 in 10.0 mi SW 13.8 mph 20.7 mph N/A   Clear
12:54 PM 93.0 °F - 52.0 °F 25% 29.82 in 10.0 mi SW 10.4 mph - N/A   Clear
1:54 PM 95.0 °F 92.7 °F 54.0 °F 25% 29.81 in 10.0 mi SSW 13.8 mph 20.7 mph N/A   Clear
2:54 PM 97.0 °F 94.6 °F 53.1 °F 23% 29.79 in 10.0 mi SSW 17.3 mph 21.9 mph N/A   Clear
3:54 PM 97.0 °F - 52.0 °F 22% 29.78 in 10.0 mi South 17.3 mph - N/A   Mostly Cloudy
4:54 PM 97.0 °F - 48.9 °F 19% 29.77 in 10.0 mi South 19.6 mph 27.6 mph N/A   Mostly Cloudy
5:54 PM 96.1 °F - 51.1 °F 22% 29.78 in 10.0 mi South 19.6 mph 24.2 mph N/A   Mostly Cloudy
6:54 PM 88.0 °F 86.5 °F 55.9 °F 34% 29.80 in 6.0 mi NW 5.8 mph - N/A   Haze
7:54 PM 91.0 °F - 52.0 °F 26% 29.78 in 10.0 mi South 15.0 mph - N/A   Mostly Cloudy
8:54 PM 89.1 °F 86.7 °F 53.1 °F 29% 29.79 in 10.0 mi South 11.5 mph - N/A   Clear
9:54 PM 86.0 °F - 52.0 °F 31% 29.82 in 10.0 mi SSE 9.2 mph - N/A   Clear
10:54 PM 84.0 °F - 52.0 °F 33% 29.86 in 10.0 mi South 11.5 mph - N/A   Clear
11:54 PM 82.9 °F - 52.0 °F 34% 29.88 in 10.0 mi South 12.7 mph - N/A   Mostly Cloudy